Skip Page Navigation
NASA JPL Caltech
NASA Logo - Jet Propulsion Laboratory + View the NASA Portal
+ Near-Earth Object (NEO) Program
Search JPL
JPL Home Earth Solar System Stars & Galaxies Technology
JPL Solar System Dynamics
BODIES ORBITS EPHEMERIDES TOOLS PHYSICAL DATA DISCOVERY FAQ SITE MAP
JPL Small-Body Database Browser
Search: [ help ]  
5385 Kamenka (1975 TS3)
Classification: Main-belt Asteroid          SPK-ID: 2005385
Ephemeris | Orbit Diagram | Orbital Elements | Physical Parameters | Discovery Circumstances | Close-Approach Data ]

[ show orbit diagram ]
Orbital Elements at Epoch 2457000.5 (2014-Dec-09.0) TDB
Reference: JPL 10 (heliocentric ecliptic J2000)
 Element Value Uncertainty (1-sigma)   Units 
e .2333560496077519 8.4468e-08  
a 3.145559380807499 2.7078e-08 AU
q 2.411524069895655 2.6204e-07 AU
i 9.794985294681881 1.0828e-05 deg
node 41.46758842532138 3.4428e-05 deg
peri 301.7286411085265 3.9825e-05 deg
M 42.12311048577153 2.08e-05 deg
tp 2456762.068741343298
(2014-Apr-14.56874134)
0.0001171 JED
period 2037.723523418489
5.58
2.6312e-05
7.204e-08
d
yr
n .1766677352755212 2.2812e-09 deg/d
Q 3.879594691719343 3.3397e-08 AU
  Orbit Determination Parameters
   # obs. used (total)      1164  
   data-arc span      21909 days (59.98 yr)  
   first obs. used      1955-03-22  
   last obs. used      2015-03-16  
   planetary ephem.      DE431  
   SB-pert. ephem.      SB431-BIG16  
   condition code      0  
   fit RMS      .49481  
   data source      ORB  
   producer      Otto Matic  
   solution date      2015-Apr-07 16:21:37  

Additional Information
 Earth MOID = 1.42246 AU 
 T_jup = 3.144 
[ show covariance matrix ]

Ephemeris | Orbit Diagram | Orbital Elements | Physical Parameters | Discovery Circumstances | Close-Approach Data ]

Physical Parameter Table
Parameter Symbol Value Units Sigma Reference Notes
absolute magnitude H 12.2 mag n/a MPO313463  
rotation period rot_per 6.683 h n/a LCDB (Rev. 2015-May); Warner et al., 2009 Result based on less than full coverage, so that the period may be wrong by 30 percent or so.
Published Reference List:
[Carbo, L.; Kragh, K.; Krotz, J.; Meiers, A.; et al. (2009) Minor Planet Bul. 36, 91-94.]

5385 Kamenka           Discovered 1975 Oct. 3 by L. I. Chernykh at the Crimean Astrophysical Observatory.
Kamenka, a small town in the Cherkassian region of Ukraine, is connected with many great persons of Russian culture and history, including Pushkin, Tchaikovsky and the Decembrists.
NOTE: some special characters may not display properly (any characters within {} are an attempt to place the proper accent above a character)
Reference: 20000124/MPCPages.arcLast Updated: 2013-03-29

[ show close-approach data ]
Alternate Designations
 1975 TS3 = 1975 UG = 1986 TY1 
Ephemeris | Orbit Diagram | Orbital Elements | Physical Parameters | Discovery Circumstances | Close-Approach Data ]
ABOUT SSD CREDITS/AWARDS PRIVACY/COPYRIGHT GLOSSARY LINKS
FirstGov 2015-May-25 07:29 UT
(server date/time)  
NASA Home Page
Site Manager:   Ryan S. Park
Webmaster  Alan B. Chamberlin